Location: Newark
(44.6303°N, 123.0961°W)
Time: 04:31:46
(UTC+00:00)

N. Korean satellite - Visible Passes

Search period start: 23 January 2020 00:00
Search period end: 02 February 2020 00:00
Orbit: 454 x 507 km, 97.2° (Epoch: 22 January)

Date Brightness Start Highest point End Pass type
(mag) Time Alt. Az. Time Alt. Az. Time Alt. Az.
23 Jan 10.1 12:56:09 10° ENE 12:57:24 11° E 12:58:39 10° ESE visible
23 Jan 6.7 14:27:36 10° N 14:31:03 48° WNW 14:34:31 10° SSW visible
24 Jan 6.6 14:02:01 10° NNE 14:05:35 78° ESE 14:09:11 10° S visible
25 Jan 9.8 02:14:04 10° SW 02:15:59 14° W 02:17:53 10° WNW visible
25 Jan 8.2 13:36:43 10° NNE 13:40:03 36° E 13:43:24 10° SSE visible
26 Jan 8.9 01:47:18 10° SSW 01:50:18 28° W 01:53:19 10° NW visible
26 Jan 9.5 13:11:51 10° NE 13:14:25 18° E 13:16:59 10° SE visible
26 Jan 7.3 14:44:41 10° N 14:47:51 30° WNW 14:51:03 10° SW visible
27 Jan 6.5 14:18:53 10° N 14:22:27 62° WNW 14:26:02 10° SSW visible
28 Jan 7.1 13:53:23 10° NNE 13:56:57 60° E 14:00:33 10° S visible
29 Jan 9.7 02:04:51 10° SW 02:07:15 18° W 02:09:40 10° NW visible
29 Jan 8.7 13:28:11 10° NE 13:31:23 29° E 13:34:35 10° SSE visible
29 Jan 7.9 15:01:55 10° NNW 15:04:36 20° WNW 15:07:18 10° WSW visible
30 Jan 9.8 13:03:34 10° NE 13:05:43 15° E 13:07:52 10° SE visible
30 Jan 7.1 14:35:53 10° N 14:39:15 38° WNW 14:42:39 10° SW visible
31 Jan 6.5 14:10:11 10° N 14:13:49 81° WNW 14:17:29 10° SSW visible
01 Feb 10.2 02:23:07 10° WSW 02:24:14 11° W 02:25:21 10° WNW visible
01 Feb 7.7 13:44:46 10° NNE 13:48:18 47° E 13:51:51 10° S visible
